Theta_e
351 352 351 351 351 350 350 350 349 349 349 349 349 348 348 347 346 345 345 345 346 346 346 346 346 346 346 345 345 345 347 347 346 346 347 349 351 353 353 352 352 354 355 356 356 355 355 355 356 356 354 355 358 358 357 356 356 356 356 355 356 356 354 355 358 358 359 359 357 356 354 352 352 351 350 353 354 349 344 342 343 345 348 349 349
351 351 351 351 351 350 350 350 349 349 349 349 348 348 347 346 345 345 345 344 344 344 345 345 345 345 345 345 344 344 344 346 346 345 346 347 348 351 352 351 351 353 354 354 354 354 353 354 356 356 354 353 355 356 356 356 355 356 357 357 357 357 356 356 358 358 359 359 359 358 356 354 354 354 352 353 352 348 344 342 343 346 348 350 353
350 351 351 351 351 351 351 350 350 349 350 349 349 348 347 346 345 345 344 344 343 342 342 343 344 344 343 343 343 343 343 344 344 344 344 344 346 348 350 350 350 352 353 352 352 352 352 353 355 357 356 354 353 354 355 355 354 355 356 358 358 358 357 355 356 358 359 359 359 359 358 357 357 355 353 351 351 347 345 344 345 347 349 350 354
350 351 351 351 351 351 351 351 350 350 350 349 349 349 347 347 346 344 344 345 344 342 340 341 342 342 341 341 342 342 342 342 342 341 341 342 344 345 347 347 347 349 351 351 352 352 352 353 355 356 355 353 353 355 355 354 354 355 356 358 357 357 358 356 355 357 358 359 360 359 358 356 355 354 353 351 350 347 344 345 346 347 350 352 355
349 350 351 351 351 352 351 351 351 350 350 349 349 349 348 347 346 344 345 345 344 342 340 339 340 340 339 339 340 340 340 340 341 340 339 339 341 343 344 344 344 345 346 347 347 348 349 351 353 355 355 354 354 356 356 354 353 355 356 358 357 357 357 357 356 357 358 359 360 360 359 356 353 354 353 351 352 351 349 348 348 346 348 353 356
348 349 350 350 351 351 352 351 351 350 350 349 349 349 348 348 347 345 344 344 344 343 342 339 339 338 338 339 339 339 339 339 340 339 339 340 340 341 343 343 343 343 343 344 345 345 345 345 348 352 354 354 355 357 357 354 353 354 355 356 357 357 357 357 357 357 359 360 359 360 360 358 357 356 354 351 352 353 352 354 355 351 349 350 354
348 349 349 350 350 351 351 351 351 351 350 349 349 349 349 348 347 346 345 344 344 344 343 341 338 337 337 338 338 339 339 339 339 339 339 340 340 340 342 343 343 343 342 344 347 348 347 346 347 349 350 350 352 355 356 355 354 353 352 353 356 357 357 359 359 359 359 360 359 359 360 360 359 358 355 350 350 352 354 357 359 359 356 352 350
348 349 349 349 351 351 351 351 351 351 350 350 349 349 348 348 348 347 346 345 345 344 344 343 340 338 338 338 337 338 339 340 340 339 339 339 340 340 341 342 343 345 344 343 346 348 349 349 349 350 348 344 345 350 354 355 355 354 353 352 353 356 357 358 360 360 359 359 359 359 359 360 360 359 357 354 355 357 358 358 358 358 360 358 354
349 349 349 350 351 351 351 351 351 351 351 350 349 349 348 348 347 347 347 346 346 345 344 344 343 342 340 340 338 339 340 340 340 339 339 339 339 340 341 341 343 345 344 345 346 347 347 349 350 350 346 340 338 343 348 351 354 355 356 354 353 355 357 358 359 360 360 359 359 359 359 360 360 360 360 360 360 359 358 358 359 358 360 361 361
350 349 349 350 351 350 349 350 350 351 350 349 349 349 349 349 348 347 347 346 346 345 344 345 344 344 342 341 341 341 341 341 340 338 338 339 340 340 341 341 342 343 343 343 346 347 347 349 348 346 342 337 337 340 343 346 349 351 354 355 355 356 358 359 359 359 360 359 359 359 359 359 359 359 361 360 359 359 359 360 361 361 361 361 362
349 350 350 350 349 348 348 349 349 350 349 349 349 349 349 350 348 347 347 346 345 345 345 345 345 344 344 343 343 343 342 341 339 337 338 339 340 341 342 341 341 341 342 342 344 346 347 349 349 348 343 338 337 339 340 344 347 348 349 351 353 354 357 359 359 359 359 359 359 358 358 359 359 358 359 359 359 360 360 360 360 360 361 362 362
351 350 351 351 350 349 349 349 349 349 349 348 349 348 349 350 349 349 347 346 346 345 345 345 345 345 345 345 345 344 343 341 338 337 338 338 340 341 342 344 344 343 343 343 343 345 347 349 351 352 349 342 340 342 343 343 345 347 349 349 350 351 353 355 357 359 360 360 359 359 358 359 359 360 359 358 359 360 360 361 361 360 361 361 361
354 353 352 352 351 350 351 352 351 350 350 349 349 349 349 349 350 350 349 348 348 347 346 346 346 345 346 346 346 345 344 342 340 339 339 338 339 340 341 344 346 346 345 345 344 345 346 347 349 351 350 346 344 345 347 347 346 347 348 349 350 351 351 352 352 354 357 359 360 360 360 360 360 359 358 356 356 358 360 360 361 361 361 361 360
355 356 355 354 353 353 353 353 353 353 352 352 351 351 350 350 350 350 351 351 349 348 347 347 347 346 346 346 346 346 346 345 343 342 341 340 340 340 341 343 345 348 347 346 346 346 345 345 347 349 350 349 347 345 348 349 349 349 350 350 350 350 350 351 351 351 353 355 357 358 358 359 358 354 353 354 354 355 358 359 360 361 361 360 359
353 354 356 356 355 355 353 352 352 353 352 352 352 352 352 352 352 352 351 352 351 350 349 349 349 348 347 347 347 347 346 346 345 344 344 343 342 341 341 342 345 348 349 347 345 345 345 345 346 347 349 351 350 347 348 350 352 353 352 352 352 351 351 350 350 351 351 352 353 354 354 356 355 352 353 356 355 354 356 357 358 359 358 357 357
349 350 353 353 353 354 353 351 351 351 351 351 352 351 351 352 353 353 353 353 353 352 352 351 351 350 349 349 348 348 348 347 346 346 345 344 344 343 342 343 344 346 349 349 347 345 345 346 347 348 350 350 349 347 347 350 353 356 356 355 355 356 354 351 348 349 351 351 351 352 352 352 353 352 352 354 355 355 356 356 357 357 358 358 359
345 346 348 350 350 351 352 351 352 351 351 351 351 351 351 352 352 353 354 354 353 354 354 353 352 352 351 351 350 350 350 349 348 348 347 346 345 344 344 344 344 345 347 348 348 347 346 346 347 349 350 350 348 347 346 348 352 355 358 357 357 358 357 354 351 348 348 349 350 349 349 348 349 349 349 349 350 352 354 356 357 357 359 360 360
340 341 344 346 347 350 350 350 351 352 352 352 351 351 352 353 352 353 354 355 354 355 355 355 355 354 354 353 352 352 352 351 350 350 349 348 347 345 345 345 345 346 346 347 349 349 347 347 347 348 349 349 348 347 347 348 350 354 357 358 358 359 358 357 356 353 348 348 349 349 347 346 347 349 348 348 349 350 351 353 355 357 358 359 359
335 335 338 341 343 346 349 351 352 353 352 353 352 352 352 352 353 354 354 355 355 356 356 356 356 356 356 355 354 354 354 353 353 352 351 350 349 347 347 346 346 347 348 349 350 350 349 348 348 348 348 348 348 348 348 349 350 352 356 358 359 359 358 358 358 357 354 353 353 351 350 348 349 349 349 349 350 351 351 351 352 355 358 358 358
333 332 334 337 339 342 345 349 352 353 354 354 354 353 353 353 354 355 356 357 357 357 358 358 358 358 357 357 356 356 356 355 355 354 353 352 352 350 348 348 348 349 350 350 352 352 351 350 349 349 349 348 349 348 349 349 350 351 354 358 359 358 357 357 356 355 356 357 357 356 355 353 353 353 353 351 351 351 351 352 353 355 357 358 359
332 331 332 334 337 340 342 345 349 353 354 355 355 355 355 355 354 354 356 356 357 358 359 358 359 359 358 358 358 358 357 357 356 356 355 354 354 352 350 350 350 350 351 351 352 353 354 353 351 350 350 349 349 349 349 349 350 351 353 355 355 353 353 355 357 356 355 356 357 357 357 356 355 355 356 355 355 354 353 353 354 354 356 357 358
330 331 332 333 335 338 340 342 345 349 352 354 356 356 356 356 355 353 353 353 355 359 361 360 359 360 360 359 359 359 358 358 357 357 356 356 355 354 353 352 352 351 352 353 353 353 354 354 352 351 351 350 349 349 349 349 349 350 351 351 351 351 351 353 355 356 357 357 357 357 358 358 357 357 357 357 357 357 357 356 356 355 355 355 356
328 329 331 333 333 335 338 340 342 345 348 351 353 354 355 356 355 353 352 351 352 356 361 362 360 360 360 360 360 360 359 358 358 357 356 356 355 355 354 354 353 352 353 354 354 354 354 354 353 352 351 350 350 349 349 350 350 350 350 350 350 351 352 353 353 354 356 357 357 358 358 358 357 358 357 357 357 359 359 359 358 356 355 354 354
327 328 330 331 332 333 336 338 340 343 345 347 350 352 354 354 354 354 353 352 350 352 357 362 362 361 361 360 360 360 360 360 359 358 357 356 356 355 355 355 354 353 352 353 354 355 355 354 353 352 351 351 351 350 350 350 350 350 350 350 351 352 352 353 353 353 354 355 356 357 357 357 357 357 357 356 356 358 358 357 356 356 357 358 358
326 328 329 330 331 332 334 336 338 340 343 345 347 351 353 353 354 354 354 354 353 352 356 361 362 361 361 361 360 361 361 361 360 359 358 357 356 355 355 355 355 353 353 352 353 354 355 354 353 352 352 351 351 351 350 350 351 351 351 351 352 352 352 353 352 353 353 355 356 357 356 356 356 356 356 355 355 355 355 354 355 357 359 360 360
324 327 328 329 330 331 332 334 336 338 341 344 347 350 353 354 355 354 353 354 355 356 358 361 362 362 361 361 361 361 361 361 361 360 359 358 357 356 356 355 355 354 353 353 353 353 353 353 352 352 352 352 351 351 351 351 351 352 352 351 352 352 352 352 352 353 354 355 356 356 356 357 357 356 356 355 355 354 354 354 356 359 360 360 360
324 326 327 328 329 330 331 333 335 338 341 345 347 349 352 355 357 356 355 356 357 358 360 361 362 361 361 361 361 361 361 362 362 361 360 359 358 357 356 355 355 354 353 353 352 352 352 352 352 352 351 352 351 351 351 351 351 352 352 352 352 353 353 353 354 353 354 355 356 357 356 356 357 356 355 354 354 355 355 355 356 359 360 359 358
324 325 326 327 328 329 331 333 335 338 340 343 346 348 350 353 356 358 358 359 359 359 361 362 362 362 362 362 362 362 362 363 362 362 362 360 359 357 356 356 355 354 353 353 352 352 351 351 351 351 350 351 351 351 351 351 352 351 352 352 353 353 353 354 354 354 354 355 356 357 356 356 355 355 355 354 354 355 356 356 357 358 358 356 354
323 324 325 326 327 329 331 333 334 336 337 339 341 343 346 348 351 354 357 359 359 360 360 362 363 363 363 363 363 364 364 363 362 361 361 360 359 359 357 356 355 355 355 355 353 351 350 350 351 352 351 351 351 352 352 353 353 353 353 353 353 354 354 354 354 354 354 355 355 355 355 355 355 355 354 354 355 356 356 356 356 355 352 351 351
322 324 325 325 327 328 330 331 332 334 335 336 337 339 341 343 345 348 350 353 356 357 358 360 361 362 363 363 363 364 364 363 361 360 360 360 359 358 358 357 356 356 356 354 351 348 349 350 352 353 353 353 353 354 354 355 355 356 356 355 354 355 355 354 354 355 355 355 355 355 355 355 356 355 355 355 356 356 355 355 354 351 349 349 350
322 323 324 324 325 326 327 328 330 332 334 336 337 339 340 342 343 345 346 347 351 353 355 356 357 358 360 361 362 362 362 361 360 360 360 359 358 358 358 357 356 356 355 353 348 346 349 351 353 353 354 354 354 355 356 356 356 357 357 357 356 356 355 355 355 355 354 354 354 354 354 355 355 355 355 355 355 354 353 352 350 349 348 350 350
321 321 322 323 324 325 326 327 329 331 333 335 337 339 340 342 343 344 345 347 349 352 355 355 356 356 356 357 359 360 360 359 360 359 359 358 358 357 357 357 356 356 355 352 349 347 349 351 353 354 354 354 354 355 355 356 357 357 358 358 358 357 356 355 355 354 354 354 354 354 353 354 354 355 355 354 353 352 351 349 349 348 348 349 349
319 320 320 321 323 324 325 327 328 330 332 334 335 336 337 338 340 341 342 344 347 351 354 356 356 356 356 355 356 357 357 358 358 358 358 358 358 357 357 357 356 356 353 350 349 349 350 352 354 355 355 355 355 355 355 356 357 358 358 359 359 358 357 355 354 354 354 353 354 353 353 353 353 354 353 352 350 350 350 350 350 349 348 347 347
318 318 319 321 322 324 325 326 327 329 329 331 332 333 335 336 338 340 341 344 347 351 354 356 357 357 356 356 355 356 356 357 357 357 357 357 358 358 357 356 355 354 351 349 349 351 353 353 354 355 355 356 355 355 356 356 356 357 358 359 359 359 358 356 354 354 353 352 353 353 353 353 352 352 352 351 350 349 349 350 351 350 348 347 347
317 318 319 320 322 323 324 325 325 326 327 328 330 332 334 335 338 340 342 344 346 350 353 355 357 358 358 357 357 356 356 356 357 357 357 356 357 356 355 353 351 350 348 347 348 351 353 354 354 355 355 356 355 355 355 356 356 357 358 358 359 359 358 356 354 354 353 352 351 351 351 352 351 351 350 350 350 350 349 350 351 350 349 349 349
317 317 318 319 320 321 322 322 323 324 325 326 327 329 331 334 336 339 342 343 345 348 351 354 357 359 359 359 358 358 357 356 356 357 357 356 355 354 353 352 351 350 348 347 347 349 351 354 355 355 355 355 356 356 356 356 357 357 357 357 358 358 357 356 355 354 353 352 351 351 351 350 350 350 349 349 350 351 351 351 351 351 351 351 350
317 317 317 318 319 320 320 321 322 323 324 325 326 328 330 333 335 338 342 344 346 348 350 353 355 357 359 360 359 359 358 357 356 356 355 354 352 352 352 353 354 354 351 349 349 349 350 352 354 355 355 355 355 356 356 355 356 357 356 356 356 357 356 356 354 354 354 353 352 352 351 350 350 350 349 350 351 351 352 352 353 352 351 351 350
316 317 317 318 318 319 319 320 321 323 324 325 327 329 332 335 338 340 343 345 346 347 349 351 353 355 358 359 359 358 358 357 355 353 352 351 350 350 351 353 355 357 356 354 352 350 351 352 353 354 355 355 355 356 356 356 356 357 356 355 354 354 354 354 354 354 354 354 353 352 351 351 351 351 350 351 352 352 353 353 353 353 350 349 347
316 317 317 317 317 318 319 320 322 323 324 326 328 330 333 335 339 342 344 345 345 347 349 350 352 354 356 357 356 356 355 354 352 351 351 350 350 350 350 351 354 357 358 357 356 353 352 352 352 352 354 355 355 355 355 355 356 357 356 355 355 355 354 354 354 354 354 353 353 353 352 352 352 351 352 352 352 352 353 353 352 352 350 347 344
316 317 317 317 317 318 320 321 322 323 324 325 327 328 330 332 335 339 343 345 346 348 348 349 350 352 352 353 353 353 352 352 353 353 353 352 351 350 349 350 352 355 358 359 358 356 353 352 352 352 352 354 354 354 354 355 355 356 355 354 355 355 355 354 354 354 353 353 352 352 352 352 352 353 353 353 353 353 353 352 350 350 349 346 344
316 316 316 317 317 318 320 321 321 322 323 323 324 325 327 329 331 334 337 341 345 347 347 349 349 348 347 348 350 350 350 351 352 354 354 353 352 350 349 348 349 352 354 355 356 355 354 353 352 352 352 352 352 352 353 353 354 354 354 354 354 354 355 354 354 353 352 351 351 351 352 353 353 353 353 352 353 352 351 349 347 346 346 345 343
315 315 316 316 318 319 320 320 320 320 320 321 321 322 323 324 326 328 331 336 340 342 344 344 343 341 341 343 345 347 346 345 345 346 348 348 348 348 347 347 347 348 349 350 350 351 352 352 351 352 352 352 352 353 353 353 353 353 353 353 353 353 354 353 352 352 351 350 350 351 351 352 352 351 351 351 351 349 347 346 345 344 344 344 343
315 315 316 316 318 318 318 318 317 317 317 318 319 319 320 320 321 322 324 327 330 332 333 333 332 332 333 334 337 340 339 337 335 336 337 338 339 339 340 341 342 342 344 344 346 347 348 348 349 349 349 350 350 351 350 351 352 352 352 352 352 352 351 350 349 349 348 348 349 349 350 350 349 349 348 348 347 344 342 342 342 342 342 342 341
314 314 315 316 317 316 316 316 315 315 316 316 317 316 316 316 317 317 318 319 320 321 322 321 321 323 324 325 328 330 329 327 326 326 326 326 327 327 328 330 331 332 333 335 337 340 342 344 345 346 346 347 348 347 346 347 348 348 348 348 348 348 347 347 347 347 347 347 347 347 348 347 346 345 345 345 344 342 340 339 339 338 338 337 337
313 313 314 315 315 315 314 314 313 313 314 314 314 314 313 313 313 313 313 313 313 313 313 313 313 314 314 314 315 316 315 315 315 315 315 315 315 315 316 319 321 322 323 324 327 330 332 334 337 339 341 342 343 343 344 344 345 345 344 344 344 345 345 346 346 346 346 347 346 346 345 344 343 341 341 342 341 339 336 334 333 332 331 330 331
311 312 313 313 313 313 312 312 312 312 312 312 311 311 310 310 310 310 309 309 309 308 308 308 307 307 307 306 306 306 306 306 306 306 305 306 306 306 308 309 311 312 313 315 317 318 320 322 324 325 328 332 334 336 337 339 340 341 341 341 341 342 344 344 345 345 345 345 344 343 342 340 337 336 335 334 333 332 331 330 330 330 329 328 328
310 311 312 312 311 311 310 310 310 310 310 309 309 309 308 308 308 307 307 306 306 305 305 304 304 303 303 302 302 302 302 301 301 300 300 301 301 302 303 304 305 306 306 308 309 310 311 312 313 314 316 320 324 328 331 333 335 337 338 338 339 340 341 342 342 342 341 341 341 340 338 335 332 331 330 329 329 328 328 327 326 326 325 325 324
309 310 310 310 309 309 309 308 308 308 307 307 307 307 306 306 306 305 305 304 303 303 302 302 301 301 300 300 299 299 298 298 298 298 298 298 299 299 300 300 301 301 302 302 303 303 304 305 306 306 308 310 314 318 322 326 330 334 335 336 337 338 338 338 338 337 335 335 335 335 335 333 331 331 330 327 326 324 323 322 321 321 321 321 322
308 308 309 308 308 307 307 306 306 306 305 305 305 305 305 304 304 303 303 302 301 301 301 300 300 299 299 298 298 297 297 297 297 296 296 297 297 297 298 298 298 299 299 299 299 300 300 300 301 301 302 303 306 309 312 316 323 330 332 332 333 333 333 333 333 333 332 332 332 331 331 329 327 326 325 324 323 322 320 319 318 318 317 318 318
307 307 307 307 306 306 305 305 304 304 304 304 304 304 303 303 302 302 301 300 300 300 300 299 299 298 298 297 297 296 296 296 296 296 296 296 296 296 296 296 296 296 297 297 297 297 297 297 298 299 299 300 302 305 307 309 314 321 325 327 328 328 329 329 329 328 328 329 328 327 326 325 322 321 320 319 319 319 318 316 315 315 315 315 314
306 306 306 306 305 305 304 304 303 303 303 303 302 302 301 301 301 300 300 299 299 299 298 298 298 297 297 296 296 296 296 295 296 296 296 296 297 298 298 298 299 299 299 300 300 300 300 299 297 297 297 298 299 302 304 306 308 311 316 320 322 323 323 324 324 325 326 325 324 323 322 321 319 318 316 315 314 314 313 312 312 311 311 312 312
Wind_Speed
28 30 31 31 33 36 36 37 38 37 35 34 34 34 33 33 32 31 30 29 28 27 26 25 23 22 21 21 20 19 19 18 17 18 18 18 18 17 16 16 15 14 14 14 13 13 13 12 12 12 12 11 10 9 8 8 8 9 9 9 8 8 8 7 9 11 11 10 12 12 13 15 14 14 16 15 15 15 14 14 14 14 15 16 16
27 28 30 30 32 34 33 33 36 35 33 32 34 34 34 34 33 32 32 31 30 29 28 27 26 24 24 23 22 21 21 20 18 18 19 19 19 18 18 18 17 16 16 16 16 15 15 15 14 13 13 13 13 11 10 9 9 9 9 9 8 9 9 9 9 11 12 11 11 11 12 13 13 14 16 17 16 15 14 14 14 13 14 15 14
26 29 31 33 33 33 30 30 32 33 31 30 31 32 33 34 35 34 33 32 31 31 30 29 29 27 25 25 24 23 23 22 21 20 20 20 20 19 18 19 18 17 17 17 16 16 16 16 15 13 13 14 15 13 12 11 10 10 10 10 9 9 10 11 10 10 12 13 11 10 11 12 13 15 17 18 17 15 15 14 13 12 14 15 14
23 26 30 31 30 29 28 28 28 29 29 29 30 30 29 31 34 35 33 31 31 32 31 31 30 29 27 26 26 25 25 24 23 23 22 22 22 21 20 20 19 18 18 17 16 16 16 17 15 14 14 15 16 14 13 12 12 11 11 10 10 10 10 11 11 11 12 13 12 11 13 15 16 16 18 18 17 16 16 14 13 12 14 15 12
22 24 27 27 26 26 27 27 26 27 29 28 29 30 28 27 31 35 33 30 30 32 32 32 31 31 29 28 27 26 25 25 25 24 24 23 23 23 22 22 21 21 20 19 19 18 18 18 17 15 15 16 16 14 13 13 13 12 11 10 10 10 10 11 12 11 12 13 14 13 14 16 17 17 18 17 16 16 16 15 13 13 15 14 12
27 25 25 26 26 26 26 27 27 28 29 29 28 28 27 26 28 33 34 33 31 31 32 33 33 33 32 30 29 28 27 26 26 25 25 24 24 24 24 24 24 23 23 22 22 21 21 21 20 18 18 18 17 14 13 14 14 13 12 11 10 10 10 10 11 11 12 13 14 14 13 14 14 15 16 17 16 16 16 14 12 13 15 16 15
28 27 26 27 26 27 27 28 28 28 29 30 28 26 27 27 26 29 33 34 33 31 30 33 35 35 34 33 32 31 30 29 28 28 27 26 26 26 25 25 25 25 25 24 23 22 22 22 21 20 20 21 20 17 15 14 14 14 14 13 11 10 10 10 10 10 11 12 13 14 13 12 12 13 16 17 17 15 13 12 11 11 13 16 18
26 26 26 27 27 28 29 28 28 29 30 30 30 27 26 26 27 27 29 32 32 31 30 32 35 36 36 35 35 34 33 32 31 30 30 29 28 28 27 27 26 26 26 26 24 23 23 22 21 21 21 22 21 19 17 16 15 14 15 14 13 12 11 10 10 10 11 12 12 13 13 12 12 13 14 14 12 10 10 11 13 14 13 14 16
24 25 25 26 28 30 30 27 26 28 30 31 32 30 26 26 27 28 29 31 30 30 30 29 31 35 37 37 37 36 35 35 34 34 33 32 31 30 29 29 28 27 27 26 25 25 25 23 22 22 22 23 21 20 19 18 16 15 14 15 14 13 12 11 11 11 11 12 12 13 12 12 11 11 10 9 8 10 12 12 14 16 14 13 12
24 25 26 28 31 34 34 31 28 27 30 33 35 33 29 26 27 28 31 31 30 29 30 28 28 30 34 36 37 37 37 37 38 37 36 34 33 32 31 31 30 29 29 28 26 25 25 24 24 24 25 25 22 21 20 19 18 17 16 16 15 14 12 11 12 12 12 12 13 12 13 12 11 11 10 9 9 11 12 12 12 13 14 14 11
25 27 27 29 34 37 36 35 33 32 34 36 36 35 32 27 26 29 31 32 32 32 31 30 29 27 29 32 34 35 37 39 39 39 38 36 35 33 33 33 32 31 30 29 28 26 25 24 24 25 26 27 25 23 22 20 19 19 18 18 18 16 14 13 13 13 13 13 13 13 13 13 12 12 11 11 10 10 11 11 12 12 12 12 11
19 26 27 27 31 34 33 32 35 35 35 36 36 36 34 29 27 30 32 33 34 33 31 31 31 29 27 28 29 31 35 38 40 39 38 38 36 34 33 31 30 30 30 29 29 27 25 23 21 21 24 27 26 24 23 22 21 20 19 18 18 19 18 18 17 15 14 14 14 14 14 14 13 12 12 11 11 11 12 11 11 12 11 11 12
9 16 22 23 26 29 28 28 30 32 33 35 35 33 32 31 31 30 30 30 30 31 31 30 32 32 29 27 28 29 32 36 39 39 38 38 36 35 34 30 27 27 28 29 29 28 27 25 23 22 24 26 26 25 24 23 22 21 20 19 19 19 20 20 21 20 19 17 16 16 15 14 14 15 15 15 14 12 12 12 12 12 12 12 13
8 6 11 17 20 22 22 21 21 22 24 25 25 27 29 32 32 28 25 24 26 30 32 29 30 33 32 30 30 29 30 34 37 38 38 37 36 35 35 32 28 26 28 29 29 28 29 29 28 26 26 26 27 27 25 23 23 22 21 20 21 20 20 20 21 22 22 22 21 21 20 18 18 21 20 18 18 16 15 15 14 13 13 14 16
10 8 3 5 12 14 17 21 21 20 22 22 22 24 26 28 29 26 23 23 25 29 31 28 28 32 33 32 30 29 31 34 36 37 37 37 35 35 35 34 30 27 28 31 32 31 30 30 30 29 27 26 27 27 24 22 22 21 21 21 21 21 21 22 22 21 22 23 24 24 23 22 21 22 20 17 18 19 18 18 17 15 16 18 18
8 7 3 3 5 8 13 20 24 25 26 27 27 29 29 29 29 27 24 23 23 25 28 28 28 29 31 30 29 29 32 34 35 37 37 36 34 34 34 35 34 30 28 30 33 34 33 31 31 30 28 28 28 28 25 23 21 19 20 21 20 20 22 23 22 22 21 22 23 23 22 22 21 21 19 17 18 19 18 17 16 14 13 14 14
8 9 7 3 5 9 13 18 22 25 27 29 31 34 35 35 34 31 27 25 25 25 25 27 28 28 28 29 29 31 33 34 36 37 37 35 34 34 35 36 36 35 33 33 33 34 34 34 32 30 29 29 30 28 26 25 23 21 19 20 20 20 21 22 23 23 22 22 22 22 21 22 21 21 20 18 19 19 18 16 15 13 11 11 11
11 11 9 5 3 7 11 14 16 19 24 28 31 34 34 33 34 33 30 28 29 28 26 26 26 27 27 28 30 31 32 34 36 37 37 36 34 35 36 36 36 36 36 35 35 35 35 35 34 33 32 31 30 29 27 26 25 24 21 20 20 20 21 21 21 22 23 22 22 22 22 21 21 21 20 18 18 19 20 19 17 13 13 13 12
14 15 14 10 7 4 6 9 11 14 21 26 29 32 33 32 31 31 29 28 30 29 27 25 25 26 27 28 30 32 31 31 32 35 37 36 35 35 36 35 35 35 34 32 31 33 36 37 35 35 34 32 31 29 28 27 27 26 23 20 20 21 21 21 21 21 21 21 21 21 20 21 21 21 21 19 18 18 19 21 19 16 15 15 14
16 17 17 14 11 9 6 6 9 12 17 21 25 28 29 29 29 29 29 29 29 28 27 26 25 26 26 26 28 30 31 30 31 34 36 35 35 35 36 35 36 35 34 31 28 28 32 36 37 36 35 33 31 30 30 29 29 28 25 22 21 23 22 20 21 23 22 19 18 18 19 21 21 20 20 20 20 20 20 20 20 18 17 16 15
16 17 18 17 15 12 10 8 8 12 16 18 21 24 27 28 28 29 29 29 28 27 27 26 26 26 26 26 26 28 30 30 31 33 36 36 35 35 36 38 37 36 33 32 30 27 27 32 36 37 36 34 32 31 31 30 30 30 29 27 26 26 24 22 22 22 22 19 17 16 16 17 18 17 16 16 16 18 19 21 22 21 19 19 18
18 20 21 19 18 16 14 12 10 10 14 16 19 23 27 29 30 29 29 30 28 27 26 26 26 25 25 26 26 27 29 32 32 33 35 36 35 35 37 39 38 35 31 30 31 30 28 32 37 38 36 34 31 30 30 30 30 31 31 30 28 27 26 26 25 22 19 17 16 15 13 14 15 15 14 15 15 16 17 18 20 22 23 24 23
21 22 20 18 19 19 17 16 13 11 11 13 16 20 23 26 29 29 29 29 30 28 26 25 26 27 26 26 26 27 29 32 35 35 35 35 35 36 38 39 39 37 33 30 32 32 30 33 38 38 35 34 32 30 28 29 30 31 30 29 27 26 27 29 28 25 22 18 16 14 15 16 16 16 17 18 17 16 15 15 17 20 23 23 23
20 21 18 16 18 20 19 19 17 13 11 11 13 16 18 21 26 28 27 26 27 30 30 28 28 29 29 28 28 28 27 29 33 36 37 36 36 37 38 39 39 39 38 34 32 30 29 33 37 37 35 34 32 30 28 28 29 29 29 27 27 27 29 30 30 29 26 22 18 17 19 21 21 20 22 23 21 18 18 19 20 21 19 18 18
18 18 17 16 17 18 20 21 20 17 14 12 12 14 16 20 22 24 24 24 25 31 33 31 29 30 30 29 29 29 27 26 27 32 35 37 37 38 39 40 39 40 41 39 35 31 30 33 35 36 35 33 31 30 30 30 29 29 28 27 27 28 29 30 30 29 26 23 21 21 22 24 25 25 24 24 23 22 22 22 21 18 15 15 16
18 17 17 17 17 17 18 21 21 19 15 13 13 14 15 18 20 20 20 21 24 29 33 32 31 31 30 29 29 28 27 25 24 26 30 34 37 39 39 40 40 39 41 41 40 37 35 35 34 34 34 33 33 32 32 32 30 29 28 28 28 28 29 30 30 30 28 26 24 23 23 23 24 25 24 24 24 24 23 21 18 14 12 14 15
17 16 16 18 18 17 17 18 18 17 15 13 12 12 13 15 17 19 19 19 22 27 31 32 32 31 29 29 28 28 27 25 23 24 26 30 35 39 39 39 39 39 41 43 43 41 39 37 36 35 33 33 34 34 33 33 31 30 30 30 29 29 29 30 31 31 30 27 23 22 24 23 23 23 25 25 24 23 23 21 17 15 14 14 15
17 17 17 17 17 17 17 17 17 16 14 13 12 13 13 14 15 16 19 22 25 29 32 32 31 30 28 26 25 25 25 25 25 26 25 26 30 35 38 39 39 40 42 43 42 42 41 37 33 33 33 31 31 32 32 32 32 31 31 30 30 30 31 30 30 30 30 28 24 23 25 25 26 27 26 24 23 22 22 21 19 19 17 16 19
17 18 17 16 17 16 16 16 16 16 15 14 14 15 15 15 16 17 20 24 27 30 32 31 29 27 26 25 23 22 22 26 31 33 31 29 29 30 32 37 39 40 41 40 39 40 40 33 26 25 27 27 26 26 26 25 26 26 27 28 29 29 30 31 31 31 31 31 29 27 26 25 26 27 25 21 20 21 21 20 20 19 17 16 19
16 17 17 16 16 16 16 16 16 17 16 15 15 17 18 18 19 21 24 26 28 31 34 36 34 29 26 25 25 25 28 32 35 33 31 32 33 31 32 34 36 37 37 35 33 32 30 26 23 23 23 23 24 24 22 21 21 22 23 26 27 26 25 28 30 30 30 32 31 28 26 24 23 24 23 19 17 18 20 22 23 20 18 17 17
14 16 17 17 16 16 17 18 18 18 17 16 16 18 20 21 22 24 25 27 29 31 35 41 43 41 36 32 29 28 31 36 36 32 29 29 30 32 34 34 34 34 34 31 31 30 26 22 23 25 24 23 24 24 22 21 21 21 21 23 25 24 23 25 28 29 29 30 30 29 28 24 20 20 21 19 18 17 19 22 23 20 18 17 16
13 15 17 18 18 17 17 17 18 18 18 17 15 16 18 21 24 26 26 25 26 28 31 36 42 45 45 43 39 35 35 35 34 32 32 31 30 30 32 32 33 34 32 28 29 31 28 24 23 23 23 24 24 23 22 22 23 22 22 21 21 22 25 28 31 32 32 30 27 27 28 23 18 17 18 19 20 19 17 19 21 19 16 16 16
14 15 17 18 19 19 18 18 19 19 19 18 16 16 18 19 21 24 28 29 28 28 29 30 34 39 42 44 44 43 43 41 37 33 31 31 31 31 30 28 30 32 31 29 28 27 26 24 23 22 22 22 23 22 22 24 23 22 22 22 20 22 27 33 33 32 32 29 24 22 22 20 17 17 18 19 20 19 18 19 19 18 16 15 16
13 14 16 18 20 21 20 19 19 20 21 21 19 18 19 19 19 20 24 26 27 27 26 26 26 29 34 39 42 43 44 44 42 39 35 32 31 30 29 27 28 29 31 31 29 26 23 23 23 22 21 21 22 21 22 23 23 22 21 21 22 23 27 32 32 27 25 23 21 18 18 17 17 16 17 17 16 16 18 18 18 17 17 16 16
13 14 16 17 19 21 21 19 19 20 21 23 22 20 19 20 20 20 19 21 23 24 24 23 22 22 25 29 33 37 40 41 41 41 39 35 30 27 26 26 26 28 31 32 30 26 24 23 22 22 21 21 21 22 22 22 22 22 22 22 23 24 26 29 29 23 18 18 19 19 19 19 17 15 15 16 15 15 16 18 18 18 17 14 14
13 13 14 15 17 19 20 20 20 20 21 23 25 25 24 24 24 22 20 21 23 24 23 21 20 21 22 22 23 26 32 35 36 37 38 36 31 27 26 27 26 27 31 35 34 29 25 24 24 22 22 22 22 23 26 26 24 24 24 24 24 23 25 26 25 19 16 17 18 17 18 18 16 15 15 15 16 16 17 18 19 16 14 11 11
14 13 13 14 15 17 19 21 21 22 23 25 28 28 28 28 27 25 23 21 21 22 21 19 17 18 20 20 19 20 23 27 29 30 31 32 31 29 29 30 27 25 27 33 36 33 28 26 24 23 23 25 26 27 29 29 27 25 26 28 27 26 26 27 24 19 17 18 17 16 17 17 16 16 16 15 15 15 17 18 16 14 14 14 13
14 14 14 15 15 17 19 20 20 21 22 25 26 26 26 26 26 25 24 24 22 20 20 17 15 15 16 16 15 16 18 20 21 22 24 26 28 30 32 31 27 24 24 27 33 37 36 32 30 29 27 27 28 30 30 28 27 26 27 30 32 31 30 28 25 20 19 19 17 16 16 16 16 16 15 15 15 15 16 16 14 14 16 16 15
14 15 16 16 16 17 18 19 19 20 21 22 23 23 23 23 22 20 21 23 22 19 18 17 15 13 12 12 12 12 13 16 16 17 19 23 27 31 34 32 29 26 24 23 27 34 38 37 36 37 35 31 31 33 32 29 27 28 30 31 30 28 27 26 23 20 19 20 18 16 17 17 17 16 16 15 15 16 17 17 17 17 16 13 12
14 14 15 15 15 16 16 17 18 19 20 20 21 21 21 21 20 18 18 19 18 17 17 18 16 13 11 11 11 11 12 14 15 14 15 18 23 28 32 30 26 23 21 20 22 28 33 35 37 39 39 37 36 36 36 32 29 29 31 32 29 25 25 27 24 20 19 19 16 15 16 16 14 14 16 17 17 18 19 18 19 19 16 11 11
14 14 15 15 15 15 15 14 15 16 17 18 19 19 19 18 16 16 17 18 18 18 18 17 15 12 10 10 11 11 11 12 12 12 12 13 16 20 24 24 22 22 22 23 23 24 27 30 33 36 37 38 38 38 36 35 32 29 27 28 28 25 25 25 23 20 18 16 14 14 15 15 13 14 16 19 20 20 18 16 15 16 15 11 11
14 15 15 15 14 13 12 11 12 14 15 16 16 16 16 15 12 12 14 17 17 16 15 13 10 8 8 9 9 9 10 10 9 8 7 7 8 11 15 19 23 26 28 28 28 27 27 29 32 34 35 36 38 38 37 37 37 33 27 25 27 26 24 21 19 17 15 13 12 13 14 13 13 14 16 18 18 16 14 11 10 11 11 11 11
13 15 15 14 12 11 10 10 10 12 14 14 13 13 13 12 10 9 10 11 11 9 8 7 5 4 4 4 4 5 6 6 4 3 3 4 5 7 10 14 18 21 24 25 26 28 28 29 29 31 32 33 35 37 37 37 38 35 29 25 25 25 23 19 17 16 16 15 15 16 15 14 13 13 14 14 14 12 11 11 10 9 10 10 11
13 13 14 12 11 9 9 8 9 11 12 12 11 10 9 9 9 8 7 7 6 4 2 2 2 2 3 3 3 3 4 3 2 2 2 1 1 2 4 7 9 12 14 17 19 22 25 27 28 29 31 32 33 34 35 34 34 33 31 27 24 23 23 22 21 20 20 19 19 17 15 13 12 12 13 13 13 13 13 13 13 13 12 11 11
11 12 12 11 9 8 7 7 8 9 9 9 8 7 7 7 8 7 6 6 5 4 3 4 4 5 7 8 9 9 9 9 8 7 7 6 5 4 2 2 3 5 6 8 11 14 16 20 22 25 27 29 30 31 32 32 32 32 31 28 25 24 23 22 21 20 20 20 19 17 15 15 14 14 14 13 13 14 14 15 15 15 14 12 11
9 10 10 9 8 6 5 6 7 7 7 6 6 5 5 6 6 7 7 6 5 5 5 6 7 8 9 11 11 12 12 12 12 12 11 11 10 8 7 5 4 2 2 2 4 6 8 10 12 14 17 20 22 24 26 27 28 29 28 25 22 22 21 20 19 19 20 21 21 21 21 21 20 20 19 17 16 16 16 15 14 13 13 11 10
8 9 8 7 6 4 3 4 5 5 5 4 4 3 5 5 6 6 7 7 6 6 7 7 8 10 12 13 14 14 15 15 16 16 15 15 14 12 11 10 10 9 8 8 6 5 4 3 4 4 7 11 14 17 20 21 23 23 21 19 18 19 20 20 21 22 23 24 25 26 27 27 26 24 22 20 18 17 17 16 15 14 13 12 10
7 7 7 5 4 2 2 2 2 3 3 3 3 3 4 5 6 6 6 7 7 8 8 9 9 10 12 14 15 16 17 17 17 17 17 18 18 18 17 16 17 17 17 16 16 15 14 12 10 9 8 8 10 13 16 19 21 22 21 22 24 26 27 28 29 28 27 27 27 28 29 29 28 27 25 24 24 22 21 19 17 17 16 14 12
6 6 5 4 2 1 1 0 1 1 1 1 2 4 5 6 7 7 7 8 9 9 9 10 10 10 12 13 14 14 15 16 17 18 19 21 22 22 22 22 22 23 23 23 23 22 22 21 19 18 16 15 14 15 16 19 23 26 26 26 27 28 29 30 31 30 28 26 25 26 27 27 27 27 27 27 27 27 26 24 21 19 16 14 13
4 4 3 3 2 2 2 2 2 2 3 3 4 5 6 7 8 8 9 9 10 10 10 11 11 12 13 14 15 16 18 21 23 24 25 26 26 27 27 28 28 28 29 29 29 29 28 27 25 24 23 22 21 21 22 22 24 26 26 24 23 23 25 27 28 28 28 28 26 26 27 28 28 27 27 27 27 27 27 26 23 20 16 14 13
2 2 3 3 4 4 5 5 5 4 4 5 6 7 8 9 10 10 10 10 10 10 11 11 12 12 14 16 18 20 22 25 27 28 29 30 31 31 32 33 33 33 33 33 33 34 34 33 31 30 29 28 28 28 28 28 29 29 28 27 25 25 26 27 28 29 29 29 28 28 28 28 28 28 27 27 26 26 26 25 24 22 19 16 14
Wind_Direction
203 206 206 207 212 216 218 220 222 222 223 225 227 229 232 234 235 235 236 238 240 241 243 245 248 250 252 255 255 254 253 251 249 248 247 247 249 249 250 255 256 256 255 254 256 259 261 263 264 266 268 269 266 265 268 270 269 268 271 275 273 266 259 254 272 289 292 296 304 308 315 322 324 326 331 333 331 333 339 346 351 352 351 348 344
202 205 206 208 212 215 216 218 221 221 220 222 225 227 231 234 235 235 235 237 239 240 242 244 246 248 250 252 254 255 256 256 253 252 251 251 252 251 251 254 253 252 252 254 257 260 263 265 265 267 272 273 272 269 267 267 265 263 264 265 264 263 263 261 270 286 292 297 301 305 312 318 318 320 325 328 329 332 338 345 350 354 354 352 348
202 205 208 211 214 214 213 214 218 219 217 218 222 224 227 232 234 235 235 236 238 239 241 242 244 246 248 249 251 253 255 257 256 256 256 255 255 253 252 253 253 251 250 252 255 258 262 265 265 263 267 273 275 273 268 264 263 262 260 260 260 261 263 265 266 274 288 295 297 300 306 310 311 314 320 324 327 331 337 341 347 352 354 355 350
205 205 208 211 212 212 212 213 214 215 215 217 220 221 222 227 232 235 234 233 236 239 239 239 241 244 245 246 247 250 253 255 257 259 259 258 257 257 256 257 257 255 253 253 254 256 259 262 262 261 265 272 274 271 267 265 263 260 258 258 261 261 259 264 266 266 277 287 290 294 301 305 307 310 315 320 324 328 333 336 342 348 352 352 347
209 208 208 209 210 210 211 212 212 213 215 217 219 220 219 221 229 234 233 231 234 238 238 238 238 240 241 243 245 247 250 253 255 258 259 259 258 257 258 260 261 261 261 261 261 261 262 262 262 262 263 268 270 266 263 265 264 260 257 256 258 260 260 262 267 266 266 277 285 289 296 302 305 307 310 316 321 323 326 330 334 343 350 350 344
207 207 207 208 210 211 211 212 213 214 215 217 219 219 217 217 224 231 233 231 232 235 237 237 237 237 239 241 243 245 247 250 252 255 257 258 258 258 258 260 262 264 264 265 265 265 266 267 266 264 262 264 264 261 262 265 265 260 258 258 257 259 262 262 265 266 263 270 280 285 288 292 297 301 304 311 316 316 318 320 321 330 341 345 345
203 205 205 207 209 211 211 212 213 214 216 218 219 218 218 218 219 226 231 231 231 231 233 236 237 238 239 241 243 245 246 247 249 252 253 254 256 258 258 258 261 263 265 266 265 264 265 266 266 264 263 265 265 263 263 266 266 264 262 261 258 257 260 260 260 263 264 268 275 279 282 284 287 292 297 306 312 313 314 315 311 315 325 333 338
201 203 204 206 209 211 212 213 214 215 217 219 220 218 217 218 218 222 226 228 229 229 229 233 237 238 239 241 243 245 246 247 248 249 251 252 253 255 257 258 258 260 264 266 266 264 264 264 263 261 262 266 268 266 264 264 266 267 267 265 261 258 258 257 256 258 261 266 270 274 279 281 281 284 290 300 306 306 305 306 307 311 313 319 328
202 205 206 208 211 213 213 212 213 216 218 221 223 221 218 219 220 222 225 227 228 228 228 229 233 237 239 240 243 244 245 247 248 248 249 250 251 252 254 256 256 257 260 264 265 265 265 263 261 260 262 267 271 270 267 265 263 263 264 266 265 261 256 253 254 255 257 261 265 269 272 274 275 277 279 282 289 298 305 303 304 310 312 311 313
204 208 210 212 216 219 219 217 216 217 220 224 227 225 221 220 221 222 226 228 228 228 228 227 228 234 237 240 242 242 243 246 248 249 249 250 250 250 251 254 255 256 258 261 261 263 264 264 263 264 266 270 271 270 269 267 265 262 259 260 261 259 253 250 250 251 253 257 260 264 268 269 272 274 274 279 286 296 303 302 300 305 310 311 307
211 212 213 214 219 222 222 221 221 222 225 227 228 228 225 221 221 225 228 230 230 230 230 229 229 230 233 237 239 240 242 245 248 249 250 250 249 249 250 253 254 255 256 257 259 260 260 261 263 264 268 271 270 269 270 269 267 265 262 259 257 255 250 247 248 249 251 255 258 261 265 267 271 272 274 281 286 289 294 295 295 299 301 305 307
224 218 217 217 221 222 220 220 222 224 227 228 228 229 228 223 224 228 229 230 231 230 229 229 231 230 229 231 233 235 240 246 249 249 250 250 249 247 248 249 251 252 253 254 256 257 257 256 257 257 262 267 268 267 269 270 269 268 267 264 260 257 253 249 249 248 249 255 259 260 262 266 270 270 269 277 285 289 291 288 284 289 289 288 294
268 238 228 221 221 222 220 220 222 224 226 227 228 227 227 227 228 229 229 229 229 229 228 228 231 231 228 229 230 232 238 245 249 249 249 250 249 247 246 246 246 247 249 251 252 254 255 255 255 254 258 264 266 264 264 267 270 270 269 268 263 260 258 255 253 253 251 254 258 259 259 262 267 271 273 281 286 285 285 286 282 282 281 279 284
355 300 246 227 221 221 221 221 223 227 229 230 231 229 228 230 231 230 229 226 224 228 228 226 228 231 231 230 232 234 237 243 248 249 250 250 249 247 245 244 244 244 246 249 251 252 254 256 256 256 257 260 263 264 262 262 265 268 268 268 266 264 262 259 257 256 254 252 255 259 263 264 269 278 282 284 285 283 280 283 285 283 280 280 284
24 15 5 216 216 214 216 219 220 225 231 232 235 235 235 236 236 232 229 226 225 229 230 227 227 231 233 232 233 236 239 243 246 248 250 250 248 247 245 243 242 243 245 249 251 252 254 255 256 257 256 256 259 262 261 258 259 261 261 263 265 265 265 263 260 259 258 257 256 260 266 268 271 280 284 280 282 285 284 283 283 283 284 285 287
11 346 13 115 185 204 216 224 222 221 223 223 225 228 231 235 238 237 235 234 232 232 231 229 228 230 232 231 231 235 240 243 244 246 249 250 247 245 244 244 243 242 244 248 251 253 254 253 254 255 254 255 258 260 260 257 253 252 253 256 259 260 262 265 266 263 262 264 265 265 269 271 272 278 282 279 278 281 285 287 283 278 278 281 285
6 308 281 230 209 218 228 235 232 227 224 222 222 224 225 227 231 233 234 237 238 235 231 230 230 231 231 230 229 234 239 242 244 245 248 248 244 242 242 243 243 243 245 247 250 252 254 253 253 252 252 255 258 260 262 257 250 246 247 250 253 253 257 263 267 268 267 268 270 271 273 275 277 279 281 281 281 278 276 276 274 269 266 268 277
360 334 316 313 276 235 237 244 243 237 232 228 227 228 228 227 227 227 229 234 238 238 235 234 233 231 231 230 230 234 239 242 244 246 247 245 241 240 240 241 242 244 246 248 249 250 253 253 253 252 252 254 257 259 259 255 248 244 243 245 249 250 254 258 261 266 271 273 274 276 277 277 279 281 280 280 282 280 271 266 268 267 264 265 274
343 339 334 333 333 310 258 245 240 238 236 232 231 231 233 233 232 229 228 231 235 237 236 236 235 234 233 233 234 236 239 242 244 246 246 244 240 239 239 238 239 241 243 245 246 248 251 253 253 252 252 254 255 256 256 252 247 243 240 241 245 248 252 256 257 261 266 271 274 277 280 282 282 283 283 281 279 277 271 268 268 263 258 262 269
333 331 331 328 323 321 303 252 228 228 233 233 234 234 233 235 236 234 231 232 234 235 234 234 236 236 236 235 236 237 238 240 242 245 246 244 240 238 236 234 236 239 240 241 241 243 248 252 253 253 253 253 253 254 253 251 247 244 240 237 240 249 255 257 261 265 267 266 268 271 275 280 282 280 280 281 280 279 278 277 272 259 252 258 264
328 326 327 326 320 314 309 289 250 232 228 227 229 231 231 232 234 236 237 238 236 234 235 236 237 239 239 238 237 237 238 239 241 243 245 244 240 237 234 234 235 236 237 239 240 240 244 248 252 254 254 253 252 251 251 251 249 246 242 241 246 256 261 261 263 269 272 269 267 268 269 274 276 273 271 272 274 275 279 282 280 269 257 256 260
324 323 321 320 317 313 306 299 285 257 240 230 225 226 226 227 230 236 243 246 243 237 234 235 237 240 241 240 238 237 238 241 242 242 244 244 242 238 236 236 237 235 233 235 238 239 240 245 251 254 255 254 254 252 252 252 250 248 248 250 256 261 263 263 264 266 268 266 264 264 262 264 267 266 263 262 264 266 269 274 278 278 274 269 265
322 321 318 314 313 312 306 301 297 283 265 251 240 234 228 225 225 227 235 244 247 244 239 236 239 242 243 242 241 238 238 241 244 244 243 244 244 241 240 240 238 234 231 233 237 238 239 244 250 254 255 256 256 255 254 252 250 250 251 254 258 260 260 261 262 262 262 261 260 259 259 262 263 262 265 271 272 267 261 261 268 276 280 279 271
321 318 314 310 308 307 305 302 298 289 281 275 263 252 241 231 225 220 222 233 244 249 249 245 243 245 245 245 246 244 240 240 244 245 244 243 244 243 243 242 240 236 234 235 237 238 238 243 250 254 256 256 256 256 256 254 252 252 254 255 256 257 256 256 258 259 260 258 256 254 257 262 265 266 271 277 277 272 270 274 276 276 274 272 268
321 315 310 307 304 303 302 300 299 294 286 279 272 263 254 245 235 224 217 223 237 248 252 250 246 245 245 245 247 247 243 238 240 244 245 244 243 244 244 244 241 238 236 236 238 239 240 244 250 254 257 257 257 256 255 254 253 253 254 255 254 252 251 253 254 254 253 252 252 251 254 262 269 273 277 279 277 276 277 280 281 276 266 260 259
319 312 307 303 301 302 298 296 298 298 289 278 269 262 256 251 246 237 226 223 232 244 249 249 246 245 245 245 245 246 244 239 235 238 242 243 243 244 245 245 243 241 239 239 241 243 243 246 249 253 255 256 256 255 254 254 255 254 253 251 249 248 248 249 249 248 248 249 248 248 253 261 267 272 275 274 273 274 275 275 273 265 255 256 257
313 309 305 301 300 301 298 295 297 297 292 285 278 271 264 258 252 246 239 231 233 239 244 245 244 243 243 243 243 242 241 238 234 233 234 237 241 242 242 242 242 240 239 239 241 242 243 245 247 249 252 253 254 254 255 255 253 251 249 247 245 245 246 247 247 248 249 248 246 249 256 260 262 264 266 268 269 270 270 267 259 247 241 242 245
307 305 303 300 298 298 297 295 295 295 293 292 289 281 274 268 261 252 243 238 237 238 239 239 239 239 237 236 236 237 235 233 232 231 227 228 234 238 239 239 239 237 237 238 240 241 242 242 243 244 245 246 248 248 249 248 247 246 245 244 243 243 245 245 244 245 247 248 248 250 254 256 256 258 260 261 261 261 261 257 246 238 235 231 231
304 303 302 300 296 294 296 296 295 294 294 294 290 282 272 266 266 264 256 248 245 246 246 244 240 237 236 233 230 228 228 232 237 238 234 231 232 234 236 238 238 239 241 241 239 239 238 235 233 234 235 235 238 239 239 239 239 239 239 239 240 240 240 239 239 241 246 248 248 248 250 251 253 256 257 255 253 253 252 249 243 243 247 243 239
300 299 298 297 295 294 295 295 295 294 293 294 293 289 282 274 270 268 267 262 257 254 253 252 250 247 245 242 236 231 233 241 247 247 244 241 240 240 242 244 243 245 247 243 235 234 234 230 225 226 227 227 230 232 231 230 230 232 232 233 234 234 234 236 238 240 244 247 248 249 249 246 247 251 251 247 246 246 244 243 243 247 248 239 232
291 293 294 293 293 294 294 294 296 295 295 296 298 296 296 295 290 283 280 278 273 266 259 256 254 252 251 249 247 245 247 251 254 254 251 249 248 248 249 249 248 249 248 239 228 225 226 225 225 226 225 225 228 229 228 227 227 228 229 229 230 229 228 233 238 239 242 245 247 247 247 244 242 246 247 244 241 239 241 245 248 248 244 233 223
281 285 290 292 294 294 293 293 295 296 297 297 299 299 301 303 302 297 293 289 284 278 270 261 255 253 251 250 250 251 254 257 258 258 255 254 254 253 253 251 250 248 245 236 227 225 225 225 225 225 223 224 227 227 227 228 228 227 228 228 225 224 228 236 242 243 243 243 242 243 245 244 241 242 244 242 241 239 240 244 243 238 233 232 231
275 279 284 289 294 295 294 294 295 295 295 295 295 295 295 295 296 297 296 293 290 285 279 269 260 255 253 252 251 251 254 257 259 259 258 256 255 255 254 253 249 245 239 229 223 223 225 225 227 227 223 223 225 226 227 230 230 228 228 227 223 226 236 245 246 244 242 241 239 238 242 241 237 239 242 243 244 243 241 239 235 227 222 225 230
271 275 279 284 289 291 292 293 294 293 294 294 292 290 288 285 284 286 289 292 292 290 287 282 274 265 257 253 252 252 253 254 256 256 256 257 256 255 252 248 244 240 234 227 223 223 225 226 228 228 225 223 225 227 228 231 231 229 228 228 228 231 241 246 245 240 239 239 235 232 234 235 233 236 240 242 244 245 244 243 238 229 223 218 219
270 273 276 279 283 286 287 290 292 292 293 292 289 285 284 282 280 279 279 280 283 285 286 286 285 280 270 261 258 256 255 255 254 253 252 252 253 250 242 236 233 231 228 226 224 224 225 227 228 227 225 224 224 225 227 231 232 230 230 232 233 234 238 241 240 235 232 231 230 230 232 233 232 232 235 237 238 240 244 247 244 237 229 220 214
270 271 274 276 278 281 283 287 289 289 288 286 284 283 281 278 277 278 277 274 272 274 278 281 284 285 281 275 271 267 262 258 256 254 251 249 247 240 231 226 225 225 225 226 225 224 224 227 228 226 226 226 225 227 231 234 235 235 235 235 233 232 234 235 233 228 226 228 229 229 230 231 229 226 227 230 232 234 240 245 246 242 236 229 222
266 268 270 273 276 279 282 285 287 287 285 283 281 279 277 276 275 275 274 272 269 268 271 276 282 285 285 283 279 274 269 264 259 255 251 247 242 236 230 227 225 223 223 226 227 226 225 227 226 225 226 228 229 232 235 237 236 237 239 240 237 234 235 233 227 221 222 226 227 226 227 229 226 221 219 223 225 227 233 239 241 239 235 230 219
266 267 267 268 273 278 281 284 285 285 284 282 279 277 275 275 275 271 269 270 272 272 273 274 275 278 285 289 281 271 266 263 257 250 245 240 235 232 230 229 229 227 226 227 230 230 230 229 228 228 228 229 231 234 235 236 235 233 236 240 240 239 239 237 230 224 223 225 225 225 226 228 225 219 216 218 221 226 230 231 228 224 225 222 208
268 270 270 270 272 275 278 282 284 283 282 280 278 277 276 275 274 270 268 272 275 276 278 279 275 272 278 285 280 266 255 249 245 240 237 235 234 232 230 229 230 232 231 229 230 233 233 233 233 233 233 232 235 237 236 234 232 232 234 238 238 236 235 232 228 225 225 226 225 225 227 227 223 218 216 217 221 227 229 225 219 218 219 213 202
271 273 273 274 274 275 277 278 280 280 280 279 278 278 277 277 278 278 277 278 279 279 278 277 275 274 274 273 271 264 251 244 241 239 235 234 235 235 233 230 230 233 234 232 231 233 233 234 235 237 236 234 235 238 237 234 232 232 234 235 233 231 230 230 227 224 224 225 223 223 225 224 217 213 216 217 218 223 225 219 216 220 224 217 207
271 273 275 276 277 277 275 274 275 278 280 280 282 283 283 283 286 288 286 282 279 278 276 273 271 270 266 261 261 261 256 255 258 256 249 242 238 234 231 230 231 233 235 236 235 235 235 235 236 238 238 236 235 235 235 234 232 230 232 232 231 229 229 228 226 223 222 222 221 220 219 216 209 208 214 218 219 222 223 218 216 222 226 219 205
273 275 276 277 276 274 271 272 276 281 283 284 286 289 290 291 294 295 291 283 276 275 275 273 268 267 266 264 261 253 247 252 266 272 263 250 237 228 228 232 235 237 239 240 240 239 240 241 241 240 239 237 235 234 233 233 231 229 228 227 227 226 225 223 221 221 220 217 214 213 212 210 208 211 219 225 225 219 213 208 207 209 208 202 194
275 276 277 275 272 269 270 275 280 284 287 289 290 293 297 300 303 306 300 289 279 274 275 274 271 273 283 284 263 233 221 231 258 278 264 245 236 231 232 236 239 242 244 244 244 243 242 243 241 239 235 234 232 231 231 230 228 226 226 225 221 218 217 213 210 212 212 208 207 210 211 212 214 215 217 219 214 200 187 183 179 176 178 179 177
273 275 274 272 270 270 274 280 284 286 289 293 296 303 313 320 325 329 323 311 302 299 298 311 330 1 31 45 69 106 111 103 80 68 73 94 187 215 226 232 236 240 243 243 241 240 239 237 236 233 231 230 229 227 228 228 225 223 226 227 220 212 210 209 210 214 215 211 207 206 202 198 194 192 193 198 194 182 174 171 165 162 165 166 162
269 269 268 267 268 271 277 284 288 292 294 297 301 315 334 344 344 344 339 332 335 348 8 31 47 56 59 60 65 72 76 76 75 74 72 70 72 78 100 179 210 224 233 235 234 235 233 231 231 229 228 227 226 225 225 225 224 223 225 227 222 214 212 212 212 211 209 203 196 187 178 171 168 165 165 170 172 167 162 158 154 154 158 158 158
262 260 261 262 263 266 277 287 291 294 299 303 310 331 358 8 7 7 8 7 9 18 28 39 50 58 62 64 66 68 69 70 71 70 69 69 67 67 68 74 86 102 128 175 206 217 218 218 222 223 221 218 219 220 221 221 219 219 221 223 220 213 209 205 197 190 186 182 175 165 155 150 147 145 144 146 151 152 149 147 147 150 154 155 156
255 252 252 256 257 259 272 292 298 300 307 315 326 357 24 31 28 25 25 27 32 40 44 48 55 63 68 72 74 74 74 74 74 72 71 71 72 72 72 71 72 73 76 83 89 94 107 140 166 182 188 191 196 202 206 207 208 209 208 205 198 191 184 178 170 165 164 163 158 151 147 145 143 142 142 143 145 145 141 137 135 131 130 130 125
246 245 244 244 246 248 260 294 311 316 327 344 4 28 46 50 46 38 32 35 42 51 56 58 63 70 75 77 79 80 80 80 79 77 77 78 79 80 80 78 77 77 75 74 73 72 71 73 79 86 99 124 146 160 168 172 175 175 171 166 164 163 160 157 154 151 151 151 149 146 147 147 147 149 150 147 143 138 130 124 120 116 112 110 104
237 235 230 223 211 200 187 67 32 26 19 41 57 63 66 67 63 56 51 51 55 60 64 65 67 72 78 82 84 84 83 82 82 81 82 84 85 86 85 84 83 82 79 75 72 71 68 66 66 69 71 79 97 113 123 133 143 148 148 149 153 155 154 151 147 143 143 144 144 143 142 140 139 141 142 140 137 132 126 120 116 111 106 101 96
224 217 204 179 143 124 113 98 89 86 83 87 92 88 82 80 77 72 69 67 66 66 68 70 71 75 80 84 86 88 88 88 88 87 87 88 88 88 87 84 82 80 78 77 76 75 71 68 67 68 68 69 78 90 97 102 112 122 129 135 141 143 142 139 136 135 136 138 138 137 136 133 130 128 126 125 124 124 122 119 116 110 103 98 95
193 176 152 130 114 105 97 90 91 96 98 98 100 98 92 88 85 83 80 75 71 70 73 75 77 81 84 88 90 92 92 93 93 92 91 91 90 89 88 85 83 80 78 76 74 72 70 66 63 63 65 67 72 80 87 90 94 100 109 116 121 123 123 124 126 127 129 129 129 127 127 126 124 121 118 116 116 116 116 116 115 111 104 99 95